• In Latvia
  • List of Countries
  • For 7 days
  • Water Temperature
  • Satellite Maps
  • Weather Map
  • Weather Widgets
  • user-avatar
    Login

    Hourly Weather Eremeycevo

    Today, 19 July, Thursday

    Time Temperature Precipitation Wind Pressure Humidity
    00:00 +19°C° 0 mm 4 mps 742 mmHg 79%
    01:00 +19°C° 0 mm 4 mps 742 mmHg 79%
    02:00 +19°C° 0 mm 4 mps 742 mmHg 81%
    03:00 +19°C° 0 mm 4 mps 742 mmHg 81%
    04:00 +19°C° 0 mm 4 mps 742 mmHg 80%
    05:00 +19°C° 0 mm 5 mps 742 mmHg 80%
    06:00 +20°C° 0 mm 5 mps 742 mmHg 75%
    07:00 +21°C° 0 mm 5 mps 742 mmHg 71%
    08:00 +23°C° 0 mm 5 mps 742 mmHg 67%
    09:00 +25°C° 0.1 mm 5 mps 742 mmHg 64%
    10:00 +26°C° 0.1 mm 6 mps 741 mmHg 62%
    11:00 +26°C° 0.1 mm 6 mps 741 mmHg 60%
    12:00 +26°C° 0.5 mm 6 mps 741 mmHg 65%
    13:00 +24°C° 0.5 mm 6 mps 741 mmHg 71%
    14:00 +25°C° 0.5 mm 5 mps 741 mmHg 77%
    15:00 +23°C° 0.2 mm 5 mps 741 mmHg 77%
    16:00 +23°C° 0.2 mm 5 mps 741 mmHg 77%
    17:00 +23°C° 0.2 mm 5 mps 741 mmHg 77%
    18:00 +22°C° 0.1 mm 5 mps 741 mmHg 80%
    19:00 +22°C° 0.1 mm 4 mps 741 mmHg 82%
    20:00 +21°C° 0.1 mm 4 mps 741 mmHg 85%
    21:00 +20°C° 0 mm 4 mps 741 mmHg 87%
    22:00 +20°C° 0 mm 4 mps 741 mmHg 89%
    23:00 +19°C° 0 mm 4 mps 741 mmHg 91%

    Tomorrow, 20 July, Friday

    Time Temperature Precipitation Wind Pressure Humidity
    00:00 +19°C° 0 mm 4 mps 741 mmHg 91%
    01:00 +19°C° 0 mm 4 mps 741 mmHg 90%
    02:00 +19°C° 0 mm 4 mps 741 mmHg 90%
    03:00 +19°C° 0.1 mm 4 mps 740 mmHg 90%
    04:00 +19°C° 0.1 mm 4 mps 740 mmHg 91%
    05:00 +19°C° 0.1 mm 4 mps 740 mmHg 91%
    06:00 +19°C° 0.1 mm 4 mps 740 mmHg 91%
    07:00 +20°C° 0.1 mm 5 mps 740 mmHg 90%
    08:00 +20°C° 0.1 mm 5 mps 740 mmHg 89%
    09:00 +20°C° 0 mm 5 mps 741 mmHg 88%
    10:00 +20°C° 0 mm 5 mps 741 mmHg 86%
    11:00 +21°C° 0 mm 5 mps 741 mmHg 85%
    12:00 +21°C° 0 mm 5 mps 740 mmHg 83%
    13:00 +22°C° 0 mm 5 mps 740 mmHg 82%
    14:00 +22°C° 0 mm 5 mps 740 mmHg 80%
    15:00 +22°C° 0.1 mm 5 mps 740 mmHg 80%
    16:00 +23°C° 0.1 mm 4 mps 740 mmHg 79%
    17:00 +23°C° 0.1 mm 4 mps 740 mmHg 79%
    18:00 +22°C° 0 mm 4 mps 740 mmHg 82%
    19:00 +22°C° 0 mm 4 mps 740 mmHg 84%
    20:00 +21°C° 0 mm 4 mps 740 mmHg 87%
    21:00 +21°C° 0 mm 4 mps 740 mmHg 89%
    22:00 +20°C° 0 mm 4 mps 740 mmHg 90%
    23:00 +20°C° 0 mm 4 mps 740 mmHg 92%

    Day after tomorrow, 21 July, Saturday

    Time Temperature Precipitation Wind Pressure Humidity
    00:00 +19°C° 0 mm 4 mps 740 mmHg 93%
    01:00 +19°C° 0 mm 4 mps 740 mmHg 94%
    02:00 +19°C° 0 mm 4 mps 740 mmHg 95%
    03:00 +19°C° 0 mm 4 mps 740 mmHg 94%
    04:00 +19°C° 0 mm 4 mps 740 mmHg 94%
    05:00 +20°C° 0 mm 4 mps 740 mmHg 93%
    06:00 +20°C° 0.1 mm 4 mps 740 mmHg 92%
    07:00 +20°C° 0.1 mm 4 mps 740 mmHg 91%
    08:00 +21°C° 0.1 mm 4 mps 740 mmHg 90%
    09:00 +21°C° 0.2 mm 4 mps 740 mmHg 89%
    10:00 +22°C° 0.2 mm 4 mps 740 mmHg 88%
    11:00 +22°C° 0.2 mm 4 mps 740 mmHg 87%
    12:00 +23°C° 0.1 mm 4 mps 740 mmHg 83%
    13:00 +25°C° 0.1 mm 4 mps 740 mmHg 80%
    14:00 +26°C° 0.1 mm 4 mps 740 mmHg 76%
    15:00 +26°C° 0.2 mm 4 mps 740 mmHg 76%
    16:00 +26°C° 0.2 mm 4 mps 740 mmHg 75%
    17:00 +27°C° 0.2 mm 4 mps 740 mmHg 74%
    18:00 +25°C° 0.9 mm 4 mps 740 mmHg 80%
    19:00 +23°C° 0.9 mm 4 mps 740 mmHg 85%
    20:00 +22°C° 0.9 mm 4 mps 740 mmHg 90%
    21:00 +22°C° 1 mm 4 mps 740 mmHg 92%
    22:00 +21°C° 1 mm 4 mps 740 mmHg 93%
    23:00 +21°C° 1 mm 4 mps 740 mmHg 95%

    22 July, Sunday

    Time Temperature Precipitation Wind Pressure Humidity
    00:00 +21°C° 0.2 mm 4 mps 740 mmHg 95%
    01:00 +20°C° 0.2 mm 4 mps 740 mmHg 96%
    02:00 +20°C° 0.2 mm 4 mps 740 mmHg 97%
    03:00 +20°C° 0.1 mm 4 mps 740 mmHg 96%
    04:00 +20°C° 0.1 mm 4 mps 741 mmHg 96%
    05:00 +20°C° 0.1 mm 4 mps 741 mmHg 95%
    06:00 +20°C° 0 mm 4 mps 741 mmHg 94%
    07:00 +20°C° 0 mm 4 mps 741 mmHg 92%
    08:00 +20°C° 0 mm 4 mps 741 mmHg 91%
    09:00 +21°C° 0 mm 4 mps 741 mmHg 87%
    10:00 +22°C° 0 mm 4 mps 741 mmHg 83%
    11:00 +23°C° 0 mm 4 mps 741 mmHg 79%
    12:00 +25°C° 0 mm 4 mps 741 mmHg 76%
    13:00 +25°C° 0 mm 4 mps 741 mmHg 74%
    14:00 +26°C° 0 mm 4 mps 740 mmHg 71%
    15:00 +26°C° 0 mm 4 mps 740 mmHg 71%
    16:00 +26°C° 0 mm 4 mps 740 mmHg 71%
    17:00 +26°C° 0 mm 4 mps 740 mmHg 71%
    18:00 +25°C° 0 mm 4 mps 740 mmHg 77%
    19:00 +24°C° 0 mm 3 mps 740 mmHg 83%
    20:00 +22°C° 0 mm 3 mps 740 mmHg 89%
    21:00 +21°C° 0 mm 3 mps 740 mmHg 91%
    22:00 +21°C° 0 mm 3 mps 740 mmHg 93%
    23:00 +20°C° 0 mm 4 mps 740 mmHg 95%

    23 July, Monday

    Time Temperature Precipitation Wind Pressure Humidity
    00:00 +20°C° 0 mm 4 mps 740 mmHg 96%
    01:00 +20°C° 0 mm 3 mps 740 mmHg 96%
    02:00 +20°C° 0 mm 3 mps 740 mmHg 97%
    03:00 +20°C° 0.1 mm 4 mps 740 mmHg 96%
    04:00 +20°C° 0.1 mm 4 mps 740 mmHg 95%
    05:00 +20°C° 0.1 mm 4 mps 740 mmHg 94%
    06:00 +20°C° 0.1 mm 4 mps 741 mmHg 93%
    07:00 +20°C° 0.1 mm 5 mps 741 mmHg 92%
    08:00 +20°C° 0.1 mm 5 mps 741 mmHg 91%
    09:00 +21°C° 0 mm 5 mps 741 mmHg 89%
    10:00 +21°C° 0 mm 4 mps 741 mmHg 88%
    11:00 +21°C° 0 mm 4 mps 741 mmHg 87%
    12:00 +21°C° 0 mm 4 mps 741 mmHg 84%
    13:00 +22°C° 0 mm 4 mps 741 mmHg 82%
    14:00 +22°C° 0 mm 4 mps 741 mmHg 80%
    15:00 +23°C° 0 mm 4 mps 741 mmHg 77%
    16:00 +25°C° 0 mm 4 mps 741 mmHg 75%
    17:00 +26°C° 0 mm 4 mps 741 mmHg 72%
    18:00 +25°C° 0 mm 3 mps 741 mmHg 77%
    19:00 +24°C° 0 mm 3 mps 741 mmHg 83%
    20:00 +21°C° 0 mm 3 mps 742 mmHg 88%
    21:00 +21°C° 0.4 mm 3 mps 742 mmHg 90%
    22:00 +20°C° 0.4 mm 4 mps 742 mmHg 93%
    23:00 +20°C° 0.4 mm 4 mps 742 mmHg 95%

    24 July, Tuesday

    Time Temperature Precipitation Wind Pressure Humidity
    00:00 +20°C° 0.1 mm 4 mps 742 mmHg 95%
    01:00 +19°C° 0.1 mm 4 mps 742 mmHg 95%
    02:00 +19°C° 0.1 mm 4 mps 742 mmHg 95%
    03:00 +19°C° 0 mm 4 mps 742 mmHg 94%
    04:00 +19°C° 0 mm 4 mps 742 mmHg 94%
    05:00 +19°C° 0 mm 4 mps 742 mmHg 93%
    06:00 +19°C° 0 mm 4 mps 743 mmHg 91%
    07:00 +20°C° 0 mm 4 mps 743 mmHg 89%
    08:00 +20°C° 0 mm 4 mps 743 mmHg 88%
    09:00 +21°C° 0 mm 4 mps 743 mmHg 83%
    10:00 +22°C° 0 mm 4 mps 743 mmHg 79%
    11:00 +23°C° 0 mm 4 mps 743 mmHg 75%
    12:00 +25°C° 0.1 mm 4 mps 744 mmHg 75%
    13:00 +25°C° 0.1 mm 4 mps 744 mmHg 74%
    14:00 +26°C° 0.1 mm 4 mps 744 mmHg 74%
    15:00 +25°C° 0.2 mm 4 mps 744 mmHg 75%
    16:00 +25°C° 0.2 mm 4 mps 744 mmHg 76%
    17:00 +25°C° 0.2 mm 4 mps 744 mmHg 77%
    18:00 +23°C° 0 mm 4 mps 744 mmHg 80%
    19:00 +22°C° 0 mm 3 mps 744 mmHg 83%
    20:00 +20°C° 0 mm 3 mps 744 mmHg 86%
    21:00 +20°C° 0 mm 3 mps 744 mmHg 86%
    22:00 +19°C° 0 mm 3 mps 744 mmHg 87%
    23:00 +19°C° 0 mm 3 mps 744 mmHg 88%
    Show more